This demonstration page uses our WeatherBlox Daily Observations layout. Learn more.

Left ArrowRight Arrow

44.89941, -97.11507

Hourly Observations for October 3, 2021

Temp ( °F °C ) Dew Point ( °F °C ) Humidity (%) Winds ( mph kmh ) Pressure ( in mb ) Visibility ( mi km ) Precip ( " mm )
12:00 am 00:00 Clear with Mist and Fog 48 8.9 48 8.9 100 100 N N/A 30.03 1017 3 4 N/A
12:08 am 00:08 Clear with Mist and Fog 47 8.3 47 8.3 100 100 N 3 6 30.03 1017 1 1 N/A
12:34 am 00:34 Clear with Mist and Fog 45 7.2 45 7.2 100 100 N 3 6 30.03 1017 2 2 N/A
12:36 am 00:36 Clear with Mist and Fog 44 6.7 44 6.7 100 100 N 3 6 30.03 1017 4 6 N/A
12:44 am 00:44 Clear with Mist and Fog 45 7.2 45 7.2 100 100 N 3 6 30.03 1017 1 2 N/A
12:53 am 00:53 Clear with Mist and Fog 45 7.2 45 7.2 100 100 N 3 6 30.02 1017 1 2 N/A
1:16 am 01:16 Clear with Fog 44 6.7 44 6.7 100 100 NNE 3 6 30.03 1017 0 0 N/A
1:40 am 01:40 Clear with Mist and Fog 46 7.8 45 7.2 96 96 N N/A 30.02 1017 1 1 N/A
1:53 am 01:53 Clear with Mist and Fog 47 8.3 47 8.3 100 100 N N/A 30.01 1016 1 1 N/A
2:08 am 02:08 Clear with Mist and Fog 46 7.8 46 7.8 100 100 N N/A 30.02 1017 2 3 N/A
2:15 am 02:15 Clear 45 7.2 44 6.7 97 97 NW 5 7 30.03 1017 10 16 N/A
2:33 am 02:33 Mostly Clear with Mist and Fog 46 7.8 45 7.2 96 96 N N/A 30.02 1017 2 2 N/A
2:35 am 02:35 Mostly Cloudy with Mist and Fog 46 7.8 45 7.2 96 96 N N/A 30.02 1017 1 1 N/A
2:46 am 02:46 Mostly Cloudy with Fog 46 7.8 45 7.2 96 96 N N/A 30.02 1017 0 0 N/A
2:53 am 02:53 Mostly Cloudy with Fog 45 7.2 45 7.2 100 100 N N/A 30.01 1016 0 0 N/A
3:29 am 03:29 Mostly Cloudy with Mist and Fog 42 5.6 42 5.6 100 100 N N/A 30.05 1018 1 1 N/A
3:53 am 03:53 Mostly Cloudy with Fog 41 5 40 4.4 96 96 N N/A 30.02 1017 1 1 N/A
4:18 am 04:18 Partly Cloudy with Mist and Fog 42 5.6 42 5.6 100 100 N 3 6 30.05 1018 1 2 N/A
4:21 am 04:21 Partly Cloudy with Mist and Fog 42 5.6 42 5.6 100 100 N 3 6 30.05 1018 2 3 N/A
4:28 am 04:28 Mostly Clear 42 5.6 42 5.6 100 100 N N/A 30.05 1018 10 16 N/A
4:53 am 04:53 Clear with Mist and Fog 41 5 41 5 100 100 N 3 6 30.02 1017 3 4 N/A
5:01 am 05:01 Clear 41 5 41 5 100 100 N N/A 30.05 1018 7 11 N/A
5:07 am 05:07 Clear with Mist and Fog 41 5 41 5 100 100 ENE 3 6 30.05 1018 2 3 N/A
5:15 am 05:15 Clear with Mist and Fog 41 5 41 5 100 100 N N/A 30.05 1018 3 5 N/A
5:53 am 05:53 Clear 43 6.1 43 6.1 100 100 N N/A 30.02 1017 10 16 N/A
6:01 am 06:01 Clear with Mist and Fog 44 6.7 43 6.1 96 96 N N/A 30.04 1017 2 2 N/A
6:08 am 06:08 Clear with Mist and Fog 44 6.7 43 6.1 96 96 N N/A 30.04 1017 1 2 N/A
6:13 am 06:13 Clear with Mist and Fog 44 6.7 43 6.1 96 96 W 3 6 30.05 1018 3 4 N/A
6:21 am 06:21 Clear 43 6.1 43 6.1 100 100 N N/A 30.06 1018 10 16 N/A
6:53 am 06:53 Clear 43 6.1 42 5.6 97 97 N N/A 30.03 1017 10 16 N/A
7:53 am 07:53 Sunny 43 6.1 42 5.6 97 97 N N/A 30.04 1017 10 16 N/A
8:53 am 08:53 Sunny 49 9.4 48 8.9 97 97 N N/A 30.04 1017 10 16 N/A
9:53 am 09:53 Sunny 57 13.9 53 11.7 87 87 N N/A 30.04 1017 10 16 N/A
10:53 am 10:53 Sunny 65 18.3 51 10.6 61 61 SSW 5 7 30.04 1017 10 16 N/A
11:53 am 11:53 Sunny 70 21.1 46 7.8 42 42 W 6 9 30.01 1016 10 16 N/A
12:53 pm 12:53 Sunny 72 22.2 47 8.3 41 41 WNW 7 11 30.01 1016 10 16 N/A
1:53 pm 13:53 Sunny 72 22.2 44 6.7 37 37 NW 7 11 29.99 1016 10 16 N/A
2:53 pm 14:53 Sunny 73 22.8 45 7.2 37 37 W 9 15 29.98 1015 10 16 N/A
3:53 pm 15:53 Sunny 73 22.8 47 8.3 40 40 N 10 17 29.98 1015 9 14 N/A
4:53 pm 16:53 Sunny 72 22.2 47 8.3 41 41 N 6 9 29.98 1015 7 11 N/A
7:30 pm 19:30 Clear 61 16 41 5 48 48 N N/A 29.97 1015 9 14 N/A
7:35 pm 19:35 Clear 61 16 41 5 48 48 N N/A 29.97 1015 10 16 N/A
7:55 pm 19:55 Clear 63 17 39 4 42 42 N N/A 29.96 1015 10 16 N/A
8:53 pm 20:53 Clear 57 13.9 45 7.2 64 64 N N/A 30.02 1017 10 16 N/A
9:53 pm 21:53 Clear 54 12.2 42 5.6 64 64 N N/A 30.02 1017 10 16 N/A
10:53 pm 22:53 Clear 52 11.1 46 7.8 80 80 N N/A 30.01 1016 10 16 N/A
11:53 pm 23:53 Clear 52 11.1 45 7.2 77 77 N N/A 30.01 1016 10 16 N/A

Powered by AerisWeather